Time,TemperatureF,DewpointF,PressureIn,WindDirection,WindDirectionDegrees,WindSpeedMPH,WindSpeedGustMPH,Humidity,HourlyPrecipIn,Conditions,Clouds,dailyrainin,SoftwareType,DateUTC
2013-01-17 00:00:00,30.2,11.9,29.97,ESE,103,0.0,0.0,46,0.00,CLR,CLR,0.00,WeatherDisplay:10.37,2013-01-17 00:00:00,
2013-01-17 00:10:00,30.0,11.7,29.97,ESE,103,0.0,0.0,46,0.00,CLR,CLR,0.00,WeatherDisplay:10.37,2013-01-17 00:10:00,
2013-01-17 00:20:00,30.0,11.7,29.97,ESE,103,0.0,0.0,46,0.00,CLR,CLR,0.00,WeatherDisplay:10.37,2013-01-17 00:20:00,
2013-01-17 00:30:00,30.0,11.7,29.97,ESE,103,0.0,0.0,46,0.00,CLR,CLR,0.00,WeatherDisplay:10.37,2013-01-17 00:30:00,
2013-01-17 00:40:00,29.8,12.0,29.97,ESE,104,0.0,0.0,47,0.00,CLR,CLR,0.00,WeatherDisplay:10.37,2013-01-17 00:40:00,
2013-01-17 00:50:00,30.0,12.2,29.97,ESE,107,0.0,0.0,47,0.00,CLR,CLR,0.00,WeatherDisplay:10.37,2013-01-17 00:50:00,
2013-01-17 01:00:00,30.0,12.2,29.97,ESE,109,0.0,0.0,47,0.00,CLR,CLR,0.00,WeatherDisplay:10.37,2013-01-17 01:00:00,
2013-01-17 01:10:00,30.0,12.2,29.97,ESE,109,0.0,0.0,47,0.00,CLR,CLR,0.00,WeatherDisplay:10.37,2013-01-17 01:10:00,
2013-01-17 01:20:00,30.0,12.2,29.97,ESE,109,0.0,0.0,47,0.00,CLR,CLR,0.00,WeatherDisplay:10.37,2013-01-17 01:20:00,
2013-01-17 01:30:00,30.2,12.4,29.97,ESE,108,0.0,0.0,47,0.00,CLR,CLR,0.00,WeatherDisplay:10.37,2013-01-17 01:30:00,
2013-01-17 01:40:00,30.2,12.8,29.97,ESE,109,0.0,0.0,48,0.00,CLR,CLR,0.00,WeatherDisplay:10.37,2013-01-17 01:40:00,
2013-01-17 01:50:00,30.2,12.8,29.97,ESE,109,0.0,0.0,48,0.00,CLR,CLR,0.00,WeatherDisplay:10.37,2013-01-17 01:50:00,
2013-01-17 02:00:00,30.2,12.8,29.97,ESE,108,0.0,0.0,48,0.00,CLR,CLR,0.00,WeatherDisplay:10.37,2013-01-17 02:00:00,
2013-01-17 02:10:00,30.2,12.8,29.97,ESE,109,0.0,0.0,48,0.00,CLR,CLR,0.00,WeatherDisplay:10.37,2013-01-17 02:10:00,
2013-01-17 02:20:00,30.2,12.8,29.97,ESE,109,0.0,0.0,48,0.00,CLR,CLR,0.00,WeatherDisplay:10.37,2013-01-17 02:20:00,
2013-01-17 02:30:00,30.0,12.7,29.97,ESE,109,0.0,0.0,48,0.00,CLR,CLR,0.00,WeatherDisplay:10.37,2013-01-17 02:30:00,
2013-01-17 02:40:00,30.0,12.7,30.00,ESE,108,0.0,0.0,48,0.00,CLR,CLR,0.00,WeatherDisplay:10.37,2013-01-17 02:40:00,
2013-01-17 02:50:00,30.0,13.1,30.00,ESE,109,0.0,0.0,49,0.00,CLR,CLR,0.00,WeatherDisplay:10.37,2013-01-17 02:50:00,
2013-01-17 03:00:00,30.0,13.1,30.00,ESE,109,0.0,0.0,49,0.00,CLR,CLR,0.00,WeatherDisplay:10.37,2013-01-17 03:00:00,
2013-01-17 03:10:00,30.0,13.1,29.97,ESE,109,0.0,0.0,49,0.00,CLR,CLR,0.00,WeatherDisplay:10.37,2013-01-17 03:10:00,
2013-01-17 03:20:00,30.2,13.8,29.97,ESE,108,0.0,0.0,50,0.00,CLR,CLR,0.00,WeatherDisplay:10.37,2013-01-17 03:20:00,
2013-01-17 03:30:00,30.6,14.1,29.97,East,101,0.0,0.0,50,0.00,CLR,CLR,0.00,WeatherDisplay:10.37,2013-01-17 03:30:00,
2013-01-17 03:40:00,30.4,13.5,29.97,ESE,103,0.0,0.0,49,0.00,CLR,CLR,0.00,WeatherDisplay:10.37,2013-01-17 03:40:00,
2013-01-17 03:50:00,30.4,13.5,29.97,ESE,108,0.0,0.0,49,0.00,CLR,CLR,0.00,WeatherDisplay:10.37,2013-01-17 03:50:00,
2013-01-17 04:00:00,30.4,13.5,29.97,ESE,109,0.0,0.0,49,0.00,CLR,CLR,0.00,WeatherDisplay:10.37,2013-01-17 04:00:00,
2013-01-17 04:05:00,30.4,13.5,30.00,ESE,109,0.0,0.0,49,0.00,CLR,CLR,0.00,WeatherDisplay:10.37,2013-01-17 04:05:00,
2013-01-17 04:10:00,30.2,13.8,30.00,ESE,109,0.0,0.0,50,0.00,CLR,CLR,0.00,WeatherDisplay:10.37,2013-01-17 04:10:00,
2013-01-17 04:20:00,30.4,13.5,30.00,ESE,108,0.0,0.0,49,0.00,CLR,CLR,0.00,WeatherDisplay:10.37,2013-01-17 04:20:00,
2013-01-17 04:30:00,30.7,14.3,30.00,ESE,102,0.0,3.0,50,0.00,CLR,CLR,0.00,WeatherDisplay:10.37,2013-01-17 04:30:00,
2013-01-17 04:40:00,30.7,13.8,29.97,ESE,104,0.0,0.0,49,0.00,CLR,CLR,0.00,WeatherDisplay:10.37,2013-01-17 04:40:00,
2013-01-17 04:50:00,30.6,13.2,29.97,ESE,104,0.0,0.0,48,0.00,CLR,CLR,0.00,WeatherDisplay:10.37,2013-01-17 04:50:00,
2013-01-17 05:00:00,30.6,13.2,29.97,ESE,104,0.0,0.0,48,0.00,CLR,CLR,0.00,WeatherDisplay:10.37,2013-01-17 05:00:00,
2013-01-17 05:10:00,30.4,13.0,29.97,ESE,104,0.0,0.0,48,0.00,CLR,CLR,0.00,WeatherDisplay:10.37,2013-01-17 05:10:00,
2013-01-17 05:15:00,30.4,13.0,29.97,ESE,104,0.0,0.0,48,0.00,CLR,CLR,0.00,WeatherDisplay:10.37,2013-01-17 05:15:00,
2013-01-17 05:20:00,30.3,13.0,29.97,ESE,104,0.0,0.0,48,0.00,CLR,CLR,0.00,WeatherDisplay:10.37,2013-01-17 05:20:00,
2013-01-17 05:30:00,30.2,12.8,29.97,ESE,104,0.0,0.0,48,0.00,CLR,CLR,0.00,WeatherDisplay:10.37,2013-01-17 05:30:00,
2013-01-17 05:40:00,30.2,12.8,29.97,ESE,104,0.0,0.0,48,0.00,CLR,CLR,0.00,WeatherDisplay:10.37,2013-01-17 05:40:00,
2013-01-17 05:50:00,30.1,12.7,29.97,ESE,104,0.0,0.0,48,0.00,CLR,CLR,0.00,WeatherDisplay:10.37,2013-01-17 05:50:00,
2013-01-17 06:00:00,30.0,12.7,29.97,ESE,104,0.0,0.0,48,0.00,CLR,CLR,0.00,WeatherDisplay:10.37,2013-01-17 06:00:00,
2013-01-17 06:10:00,30.0,12.7,29.97,ESE,104,0.0,0.0,48,0.00,CLR,CLR,0.00,WeatherDisplay:10.37,2013-01-17 06:10:00,
2013-01-17 06:20:00,29.8,13.0,29.97,ESE,104,0.0,0.0,49,0.00,CLR,CLR,0.00,WeatherDisplay:10.37,2013-01-17 06:20:00,
2013-01-17 06:30:00,29.8,13.0,29.97,ESE,104,0.0,0.0,49,0.00,CLR,CLR,0.00,WeatherDisplay:10.37,2013-01-17 06:30:00,
2013-01-17 06:40:00,29.7,12.8,29.97,ESE,104,0.0,0.0,49,0.00,CLR,CLR,0.00,WeatherDisplay:10.37,2013-01-17 06:40:00,
2013-01-17 06:50:00,29.7,12.8,29.97,ESE,104,0.0,0.0,49,0.00,CLR,CLR,0.00,WeatherDisplay:10.37,2013-01-17 06:50:00,
2013-01-17 07:00:00,29.5,12.6,29.97,ESE,104,0.0,0.0,49,0.00,CLR,CLR,0.00,WeatherDisplay:10.37,2013-01-17 07:00:00,
2013-01-17 07:05:00,29.5,12.6,29.97,ESE,104,0.0,0.0,49,0.00,CLR,CLR,0.00,WeatherDisplay:10.37,2013-01-17 07:05:00,
2013-01-17 07:10:00,29.5,12.6,29.97,ESE,104,0.0,0.0,49,0.00,CLR,CLR,0.00,WeatherDisplay:10.37,2013-01-17 07:10:00,
2013-01-17 07:20:00,29.5,12.6,29.97,ESE,104,0.0,0.0,49,0.00,CLR,CLR,0.00,WeatherDisplay:10.37,2013-01-17 07:20:00,
2013-01-17 07:30:00,29.5,12.6,29.97,ESE,104,0.0,0.0,49,0.00,CLR,CLR,0.00,WeatherDisplay:10.37,2013-01-17 07:30:00,
2013-01-17 07:40:00,29.5,13.1,29.97,ESE,104,0.0,0.0,50,0.00,CLR,CLR,0.00,WeatherDisplay:10.37,2013-01-17 07:40:00,
2013-01-17 07:50:00,29.5,13.1,29.97,ESE,104,0.0,0.0,50,0.00,CLR,CLR,0.00,WeatherDisplay:10.37,2013-01-17 07:50:00,
2013-01-17 08:00:00,29.8,13.4,29.97,East,100,1.0,4.0,50,0.00,CLR,CLR,0.00,WeatherDisplay:10.37,2013-01-17 08:00:00,
2013-01-17 08:10:00,30.0,13.6,29.97,ESE,106,0.0,0.0,50,0.00,CLR,CLR,0.00,WeatherDisplay:10.37,2013-01-17 08:10:00,
2013-01-17 08:20:00,29.8,13.4,29.97,ESE,107,0.0,0.0,50,0.00,CLR,CLR,0.00,WeatherDisplay:10.37,2013-01-17 08:20:00,
2013-01-17 08:30:00,29.8,13.4,29.97,ESE,108,0.0,0.0,50,0.00,CLR,CLR,0.00,WeatherDisplay:10.37,2013-01-17 08:30:00,
2013-01-17 08:40:00,29.8,13.4,29.97,ESE,108,0.0,0.0,50,0.00,CLR,CLR,0.00,WeatherDisplay:10.37,2013-01-17 08:40:00,
2013-01-17 08:50:00,29.7,13.3,29.97,East,98,0.0,0.0,50,0.00,CLR,CLR,0.00,WeatherDisplay:10.37,2013-01-17 08:50:00,
2013-01-17 09:00:00,29.8,13.9,29.97,ENE,78,0.0,0.0,51,0.00,CLR,CLR,0.00,WeatherDisplay:10.37,2013-01-17 09:00:00,
2013-01-17 09:10:00,29.8,13.9,29.97,East,80,0.0,0.0,51,0.00,CLR,CLR,0.00,WeatherDisplay:10.37,2013-01-17 09:10:00,
2013-01-17 09:20:00,30.0,14.1,29.97,East,85,0.0,0.0,51,0.00,CLR,CLR,0.00,WeatherDisplay:10.37,2013-01-17 09:20:00,
2013-01-17 09:30:00,30.2,14.2,29.97,East,85,0.0,0.0,51,0.00,CLR,CLR,0.00,WeatherDisplay:10.37,2013-01-17 09:30:00,
2013-01-17 09:40:00,30.2,14.2,29.97,East,85,0.0,0.0,51,0.00,CLR,CLR,0.00,WeatherDisplay:10.37,2013-01-17 09:40:00,
2013-01-17 09:50:00,30.4,13.9,29.97,East,85,0.0,0.0,50,0.00,CLR,CLR,0.00,WeatherDisplay:10.37,2013-01-17 09:50:00,
2013-01-17 10:00:00,30.6,14.1,29.97,East,85,0.0,0.0,50,0.00,CLR,CLR,0.00,WeatherDisplay:10.37,2013-01-17 10:00:00,
2013-01-17 10:05:00,30.6,14.1,29.97,East,85,0.0,0.0,50,0.00,CLR,CLR,0.00,WeatherDisplay:10.37,2013-01-17 10:05:00,
2013-01-17 10:10:00,30.7,14.3,29.97,East,85,0.0,0.0,50,0.00,CLR,CLR,0.00,WeatherDisplay:10.37,2013-01-17 10:10:00,
2013-01-17 10:20:00,30.9,14.4,29.97,East,85,0.0,0.0,50,0.00,CLR,CLR,0.00,WeatherDisplay:10.37,2013-01-17 10:20:00,
2013-01-17 10:30:00,31.1,14.6,29.97,East,85,0.0,0.0,50,0.00,CLR,CLR,0.00,WeatherDisplay:10.37,2013-01-17 10:30:00,
2013-01-17 10:40:00,31.2,14.7,29.97,East,85,0.0,0.0,50,0.00,CLR,CLR,0.00,WeatherDisplay:10.37,2013-01-17 10:40:00,
2013-01-17 10:50:00,31.5,14.9,29.97,ENE,77,0.0,0.0,50,0.00,CLR,CLR,0.00,WeatherDisplay:10.37,2013-01-17 10:50:00,
2013-01-17 11:00:00,31.6,15.1,29.97,ENE,69,0.0,0.0,50,0.00,CLR,CLR,0.00,WeatherDisplay:10.37,2013-01-17 11:00:00,
2013-01-17 11:10:00,31.8,15.3,29.97,East,83,0.0,0.0,50,0.00,CLR,CLR,0.00,WeatherDisplay:10.37,2013-01-17 11:10:00,
2013-01-17 11:20:00,32.0,15.0,29.97,NE,44,0.0,0.0,49,0.00,CLR,CLR,0.00,WeatherDisplay:10.37,2013-01-17 11:20:00,
2013-01-17 11:30:00,32.2,14.7,29.97,East,92,0.0,3.0,48,0.00,CLR,CLR,0.00,WeatherDisplay:10.37,2013-01-17 11:30:00,
2013-01-17 11:40:00,32.2,14.7,29.97,ESE,105,0.0,0.0,48,0.00,CLR,CLR,0.00,WeatherDisplay:10.37,2013-01-17 11:40:00,
2013-01-17 11:50:00,32.4,14.4,29.97,ENE,60,0.0,0.0,47,0.00,CLR,CLR,0.00,WeatherDisplay:10.37,2013-01-17 11:50:00,
2013-01-17 12:00:00,32.5,14.0,29.97,WNW,302,0.0,0.0,46,0.00,CLR,CLR,0.00,WeatherDisplay:10.37,2013-01-17 12:00:00,
2013-01-17 12:10:00,32.5,13.5,29.97,NNW,336,0.0,0.0,45,0.00,CLR,CLR,0.00,WeatherDisplay:10.37,2013-01-17 12:10:00,
2013-01-17 12:20:00,32.7,12.7,29.97,NE,47,0.0,5.0,43,0.00,CLR,CLR,0.00,WeatherDisplay:10.37,2013-01-17 12:20:00,
2013-01-17 12:30:00,32.9,12.3,29.97,North,358,0.0,0.0,42,0.00,CLR,CLR,0.00,WeatherDisplay:10.37,2013-01-17 12:30:00,
2013-01-17 12:40:00,33.1,11.9,29.97,NNE,31,1.0,4.0,41,0.00,CLR,CLR,0.00,WeatherDisplay:10.37,2013-01-17 12:40:00,
2013-01-17 12:50:00,32.9,11.2,29.97,ENE,57,0.0,6.0,40,0.00,CLR,CLR,0.00,WeatherDisplay:10.37,2013-01-17 12:50:00,
2013-01-17 13:00:00,33.1,11.3,29.97,South,177,2.0,5.0,40,0.00,CLR,CLR,0.00,WeatherDisplay:10.37,2013-01-17 13:00:00,
2013-01-17 13:10:00,33.1,10.2,29.97,East,83,3.0,6.0,38,0.00,CLR,CLR,0.00,WeatherDisplay:10.37,2013-01-17 13:10:00,
2013-01-17 13:20:00,33.1,9.0,29.94,East,80,3.0,6.0,36,0.00,CLR,CLR,0.00,WeatherDisplay:10.37,2013-01-17 13:20:00,
2013-01-17 13:30:00,33.1,9.0,29.94,East,80,2.0,5.0,36,0.00,CLR,CLR,0.00,WeatherDisplay:10.37,2013-01-17 13:30:00,
2013-01-17 13:40:00,33.1,8.4,29.94,ENE,72,3.0,5.0,35,0.00,CLR,CLR,0.00,WeatherDisplay:10.37,2013-01-17 13:40:00,
2013-01-17 13:50:00,33.1,7.7,29.94,ENE,72,6.0,8.0,34,0.00,CLR,CLR,0.00,WeatherDisplay:10.37,2013-01-17 13:50:00,
2013-01-17 14:00:00,33.1,7.7,29.94,ENE,67,5.0,6.0,34,0.00,CLR,CLR,0.00,WeatherDisplay:10.37,2013-01-17 14:00:00,
2013-01-17 14:10:00,33.1,7.7,29.94,East,79,3.0,6.0,34,0.00,CLR,CLR,0.00,WeatherDisplay:10.37,2013-01-17 14:10:00,
2013-01-17 14:20:00,32.9,8.2,29.94,East,88,3.0,6.0,35,0.00,CLR,CLR,0.00,WeatherDisplay:10.37,2013-01-17 14:20:00,
2013-01-17 14:30:00,32.7,8.0,29.94,East,85,5.0,6.0,35,0.00,CLR,CLR,0.00,WeatherDisplay:10.37,2013-01-17 14:30:00,
2013-01-17 14:40:00,32.7,7.4,29.94,East,93,5.0,8.0,34,0.00,CLR,CLR,0.00,WeatherDisplay:10.37,2013-01-17 14:40:00,
2013-01-17 14:50:00,32.4,7.1,29.91,East,98,3.0,6.0,34,0.00,CLR,CLR,0.00,WeatherDisplay:10.37,2013-01-17 14:50:00,
2013-01-17 15:00:00,32.0,7.4,29.91,East,91,6.0,8.0,35,0.00,CLR,CLR,0.00,WeatherDisplay:10.37,2013-01-17 15:00:00,
2013-01-17 15:05:00,31.8,7.9,29.91,East,88,7.0,8.0,36,0.00,CLR,CLR,0.00,WeatherDisplay:10.37,2013-01-17 15:05:00,
2013-01-17 15:10:00,31.7,7.8,29.91,East,91,6.0,8.0,36,0.00,CLR,CLR,0.00,WeatherDisplay:10.37,2013-01-17 15:10:00,
2013-01-17 15:20:00,31.6,7.7,29.91,East,85,5.0,8.0,36,0.00,CLR,CLR,0.00,WeatherDisplay:10.37,2013-01-17 15:20:00,
2013-01-17 15:30:00,31.6,7.7,29.91,ENE,78,5.0,8.0,36,0.00,CLR,CLR,0.00,WeatherDisplay:10.37,2013-01-17 15:30:00,
2013-01-17 15:40:00,31.9,7.3,29.91,ENE,74,5.0,8.0,35,0.00,CLR,CLR,0.00,WeatherDisplay:10.37,2013-01-17 15:40:00,
2013-01-17 15:50:00,31.8,7.2,29.91,East,92,5.0,6.0,35,0.00,CLR,CLR,0.00,WeatherDisplay:10.37,2013-01-17 15:50:00,
2013-01-17 16:00:00,31.6,7.7,29.91,East,95,5.0,8.0,36,0.00,CLR,CLR,0.00,WeatherDisplay:10.37,2013-01-17 16:00:00,
2013-01-17 16:10:00,31.6,7.7,29.91,East,93,5.0,6.0,36,0.00,CLR,CLR,0.00,WeatherDisplay:10.37,2013-01-17 16:10:00,
2013-01-17 16:20:00,31.6,7.7,29.91,ESE,102,5.0,8.0,36,0.00,CLR,CLR,0.00,WeatherDisplay:10.37,2013-01-17 16:20:00,
2013-01-17 16:30:00,31.6,7.7,29.91,East,101,5.0,6.0,36,0.00,CLR,CLR,0.00,WeatherDisplay:10.37,2013-01-17 16:30:00,
2013-01-17 16:40:00,31.5,7.5,29.91,East,98,3.0,6.0,36,0.00,CLR,CLR,0.00,WeatherDisplay:10.37,2013-01-17 16:40:00,
2013-01-17 16:50:00,31.3,8.0,29.91,East,97,6.0,8.0,37,0.00,CLR,CLR,0.00,WeatherDisplay:10.37,2013-01-17 16:50:00,
2013-01-17 17:00:00,31.3,8.0,29.91,East,100,3.0,6.0,37,0.00,CLR,CLR,0.00,WeatherDisplay:10.37,2013-01-17 17:00:00,
2013-01-17 17:10:00,31.5,8.7,29.88,East,99,5.0,7.0,38,0.00,CLR,CLR,0.00,WeatherDisplay:10.37,2013-01-17 17:10:00,
2013-01-17 17:20:00,31.6,8.3,29.88,East,101,5.0,6.0,37,0.00,CLR,CLR,0.00,WeatherDisplay:10.37,2013-01-17 17:20:00,
2013-01-17 17:30:00,31.8,8.5,29.88,East,99,5.0,11.0,37,0.00,CLR,CLR,0.00,WeatherDisplay:10.37,2013-01-17 17:30:00,
2013-01-17 17:40:00,31.6,8.3,29.88,East,92,6.0,7.0,37,0.00,CLR,CLR,0.00,WeatherDisplay:10.37,2013-01-17 17:40:00,
2013-01-17 17:50:00,31.8,8.5,29.88,ESE,104,2.0,6.0,37,0.00,CLR,CLR,0.00,WeatherDisplay:10.37,2013-01-17 17:50:00,
2013-01-17 18:00:00,31.8,8.5,29.88,East,87,6.0,8.0,37,0.00,CLR,CLR,0.00,WeatherDisplay:10.37,2013-01-17 18:00:00,
2013-01-17 18:05:00,31.5,8.1,29.85,ESE,108,3.0,6.0,37,0.00,CLR,CLR,0.00,WeatherDisplay:10.37,2013-01-17 18:05:00,
2013-01-17 18:10:00,31.3,8.0,29.85,ESE,116,3.0,6.0,37,0.00,CLR,CLR,0.00,WeatherDisplay:10.37,2013-01-17 18:10:00,
2013-01-17 18:20:00,31.1,8.4,29.85,East,101,3.0,6.0,38,0.00,CLR,CLR,0.00,WeatherDisplay:10.37,2013-01-17 18:20:00,
2013-01-17 18:30:00,30.9,8.8,29.85,East,95,5.0,8.0,39,0.00,CLR,CLR,0.00,WeatherDisplay:10.37,2013-01-17 18:30:00,
2013-01-17 18:40:00,30.9,9.4,29.85,East,96,5.0,6.0,40,0.00,CLR,CLR,0.00,WeatherDisplay:10.37,2013-01-17 18:40:00,
2013-01-17 18:50:00,31.1,10.1,29.85,ESE,107,3.0,6.0,41,0.00,CLR,CLR,0.00,WeatherDisplay:10.37,2013-01-17 18:50:00,
2013-01-17 19:00:00,31.3,10.3,29.85,ESE,102,3.0,6.0,41,0.00,CLR,CLR,0.00,WeatherDisplay:10.37,2013-01-17 19:00:00,
2013-01-17 19:05:00,31.5,10.4,29.85,East,98,5.0,6.0,41,0.00,CLR,CLR,0.00,WeatherDisplay:10.37,2013-01-17 19:05:00,
2013-01-17 19:10:00,31.5,10.4,29.85,East,100,3.0,6.0,41,0.00,CLR,CLR,0.00,WeatherDisplay:10.37,2013-01-17 19:10:00,
2013-01-17 19:20:00,31.3,10.3,29.85,East,96,5.0,6.0,41,0.00,CLR,CLR,0.00,WeatherDisplay:10.37,2013-01-17 19:20:00,
2013-01-17 19:30:00,31.1,10.1,29.85,ESE,105,5.0,8.0,41,0.00,CLR,CLR,0.00,WeatherDisplay:10.37,2013-01-17 19:30:00,
2013-01-17 19:40:00,30.7,10.3,29.85,ESE,112,5.0,6.0,42,0.00,CLR,CLR,0.00,WeatherDisplay:10.37,2013-01-17 19:40:00,
2013-01-17 19:50:00,30.7,10.3,29.85,ESE,113,3.0,6.0,42,0.00,CLR,CLR,0.00,WeatherDisplay:10.37,2013-01-17 19:50:00,
2013-01-17 20:00:00,30.9,11.0,29.85,East,100,5.0,6.0,43,0.00,CLR,CLR,0.00,WeatherDisplay:10.37,2013-01-17 20:00:00,
2013-01-17 20:05:00,30.9,11.0,29.85,East,100,2.0,6.0,43,0.00,CLR,CLR,0.00,WeatherDisplay:10.37,2013-01-17 20:05:00,
2013-01-17 20:10:00,30.9,11.0,29.85,ESE,108,1.0,6.0,43,0.00,CLR,CLR,0.00,WeatherDisplay:10.37,2013-01-17 20:10:00,
2013-01-17 20:20:00,31.1,11.1,29.85,SE,125,2.0,6.0,43,0.00,CLR,CLR,0.00,WeatherDisplay:10.37,2013-01-17 20:20:00,
2013-01-17 20:30:00,31.1,11.7,29.85,ESE,115,3.0,8.0,44,0.00,CLR,CLR,0.00,WeatherDisplay:10.37,2013-01-17 20:30:00,
2013-01-17 20:40:00,30.9,11.5,29.83,East,98,3.0,6.0,44,0.00,CLR,CLR,0.00,WeatherDisplay:10.37,2013-01-17 20:40:00,
2013-01-17 20:50:00,30.9,11.5,29.83,East,93,6.0,9.0,44,0.00,CLR,CLR,0.00,WeatherDisplay:10.37,2013-01-17 20:50:00,
2013-01-17 21:00:00,30.7,11.4,29.83,ESE,103,0.0,6.0,44,0.00,CLR,CLR,0.00,WeatherDisplay:10.37,2013-01-17 21:00:00,
2013-01-17 21:05:00,30.7,11.4,29.83,ESE,115,1.0,5.0,44,0.00,CLR,CLR,0.00,WeatherDisplay:10.37,2013-01-17 21:05:00,
2013-01-17 21:10:00,30.7,11.9,29.83,SE,132,3.0,12.0,45,0.00,CLR,CLR,0.00,WeatherDisplay:10.37,2013-01-17 21:10:00,
2013-01-17 21:20:00,30.9,12.0,29.83,SE,133,7.0,9.0,45,0.00,CLR,CLR,0.00,WeatherDisplay:10.37,2013-01-17 21:20:00,
2013-01-17 21:30:00,31.1,12.2,29.83,SE,135,1.0,6.0,45,0.00,CLR,CLR,0.00,WeatherDisplay:10.37,2013-01-17 21:30:00,
2013-01-17 21:40:00,31.1,12.7,29.83,SE,136,2.0,6.0,46,0.00,CLR,CLR,0.00,WeatherDisplay:10.37,2013-01-17 21:40:00,
2013-01-17 21:50:00,31.3,12.9,29.83,ESE,102,5.0,8.0,46,0.00,CLR,CLR,0.00,WeatherDisplay:10.37,2013-01-17 21:50:00,
2013-01-17 22:00:00,31.5,13.0,29.83,ESE,110,3.0,6.0,46,0.00,CLR,CLR,0.00,WeatherDisplay:10.37,2013-01-17 22:00:00,
2013-01-17 22:05:00,31.6,13.2,29.83,SE,124,3.0,9.0,46,0.00,CLR,CLR,0.00,WeatherDisplay:10.37,2013-01-17 22:05:00,
2013-01-17 22:10:00,31.8,13.4,29.83,ESE,110,3.0,8.0,46,0.00,CLR,CLR,0.00,WeatherDisplay:10.37,2013-01-17 22:10:00,
2013-01-17 22:20:00,32.0,13.5,29.83,ESE,113,3.0,10.0,46,0.00,CLR,CLR,0.00,WeatherDisplay:10.37,2013-01-17 22:20:00,
2013-01-17 22:30:00,32.0,13.5,29.83,East,100,3.0,8.0,46,0.00,CLR,CLR,0.00,WeatherDisplay:10.37,2013-01-17 22:30:00,
2013-01-17 22:40:00,32.2,13.7,29.80,ESE,114,5.0,10.0,46,0.00,CLR,CLR,0.00,WeatherDisplay:10.37,2013-01-17 22:40:00,
2013-01-17 22:50:00,32.2,13.2,29.80,ESE,117,6.0,9.0,45,0.00,CLR,CLR,0.00,WeatherDisplay:10.37,2013-01-17 22:50:00,
2013-01-17 23:00:00,32.3,13.3,29.80,ESE,107,6.0,8.0,45,0.00,CLR,CLR,0.00,WeatherDisplay:10.37,2013-01-17 23:00:00,
2013-01-17 23:05:00,32.4,13.4,29.80,ESE,102,6.0,11.0,45,0.00,CLR,CLR,0.00,WeatherDisplay:10.37,2013-01-17 23:05:00,
2013-01-17 23:10:00,32.4,13.4,29.80,ESE,109,3.0,10.0,45,0.00,CLR,CLR,0.00,WeatherDisplay:10.37,2013-01-17 23:10:00,
2013-01-17 23:20:00,32.2,13.2,29.80,East,99,5.0,9.0,45,0.00,CLR,CLR,0.00,WeatherDisplay:10.37,2013-01-17 23:20:00,
2013-01-17 23:30:00,32.2,12.7,29.80,ESE,112,3.0,15.0,44,0.00,CLR,CLR,0.00,WeatherDisplay:10.37,2013-01-17 23:30:00,
2013-01-17 23:40:00,32.0,12.5,29.80,ESE,108,6.0,12.0,44,0.00,CLR,CLR,0.00,WeatherDisplay:10.37,2013-01-17 23:40:00,
2013-01-17 23:50:00,32.0,12.5,29.80,ESE,114,5.0,10.0,44,0.00,CLR,CLR,0.00,WeatherDisplay:10.37,2013-01-17 23:50:00,